Tracking 33747 objects as of 12-Apr-2026
HD Live streaming from Space Station
objects crossing your sky now

STARLINK-36907

Track STARLINK-36907 now!
10-day predictions
STARLINK-36907 is classified as:


NORAD ID: 67940
Int'l Code: 2026-037J
Perigee: 489.1 km
Apogee: 491.3 km
Inclination: 43.0 °
Period: 94.3 minutes
Semi major axis: 6861 km
RCS: Unknown
Launch date: February 24, 2026
Source: United States (US)
Launch site: AIR FORCE EASTERN TEST RANGE (AFETR)
Your satellite tracking list
Your tracking list is empty




NASA's NSSDC Master Catalog

Two Line Element Set (TLE):
1 67940U 26037J   26101.45850953  .00009296  00000-0  34684-3 0  9997
2 67940  43.0001   5.5401 0001623 252.9414 107.1260 15.27584854  8352
Source of the keplerian elements: AFSPC